FW1683 Weather Reports


Display with metric or nautical units.
time (UTC)temp
F
wind
direction
speed
MPH
gust
MPH
rain 1hr
in
rain 24hr
in
rain mn
in
humidity
%
barometer
mb
20260901135003 86 164 7.0 12.0 0.00 0.00 0.00 57 1018.4
20260901134006 85 137 8.0 13.0 0.00 0.00 0.00 61 1019.0
20260901133006 86 174 9.0 15.0 0.00 0.00 0.00 60 1019.1
20260901132006 86 157 5.0 9.0 0.00 0.00 0.00 59 1019.0
20260901131010 85 134 5.0 10.0 0.00 0.00 0.00 65 1019.1
20260901130007 83 128 7.0 11.0 0.00 0.00 0.00 68 1018.7
20260901125008 84 140 7.0 11.0 0.00 0.00 0.00 66 1018.8
20260901124006 85 148 7.0 11.0 0.00 0.00 0.00 66 1019.0
20260901123006 84 138 9.0 15.0 0.00 0.00 0.00 68 1019.0
20260901122008 84 118 9.0 14.0 0.00 0.00 0.00 67 1018.7
20260901115004 84 139 8.0 12.0 0.00 0.00 0.00 66 1019.0
20260901114008 84 143 14.0 21.0 0.00 0.00 0.00 66 1019.2
20260901113006 84 142 13.0 20.0 0.00 0.00 0.00 65 1019.2
20260901112004 85 126 13.0 21.0 0.00 0.00 0.00 64 1019.6
20260901105004 85 116 10.0 17.0 0.00 0.00 0.00 65 1019.7
20260901104004 86 93 10.0 16.0 0.00 0.00 0.00 63 1019.5
20260901103005 86 112 7.0 12.0 0.00 0.00 0.00 64 1019.5
20260901102005 85 104 7.0 11.0 0.00 0.00 0.00 65 1019.8
20260901101005 84 119 6.0 9.0 0.00 0.00 0.00 66 1019.9
20260901100006 84 108 5.0 9.0 0.00 0.00 0.00 67 1019.9
20260901095007 84 121 5.0 9.0 0.00 0.00 0.00 67 1019.9
20260901093009 83 106 5.0 9.0 0.00 0.00 0.00 70 1019.9
20260901092004 83 99 6.0 9.0 0.00 0.00 0.00 70 1019.8
20260901090005 83 69 4.0 7.0 0.00 0.00 0.00 70 1019.7
20260901085004 82 79 4.0 7.0 0.00 0.00 0.00 71 1019.7
20260901083003 83 78 4.0 8.0 0.00 0.00 0.00 69 1019.5
20260901082005 82 59 6.0 9.0 0.00 0.00 0.00 69 1019.4
20260901081005 82 65 6.0 9.0 0.00 0.00 0.00 69 1019.4
20260901080009 82 69 5.0 8.0 0.00 0.00 0.00 69 1019.3
20260901075005 81 48 4.0 7.0 0.00 0.00 0.00 70 1019.3
20260901074005 81 43 5.0 8.0 0.00 0.00 0.00 70 1019.3
20260901072005 80 49 4.0 6.0 0.00 0.00 0.00 70 1019.0
20260901071005 80 28 5.0 8.0 0.00 0.00 0.00 72 1018.7
20260901070005 79 264 2.0 3.0 0.00 0.00 0.00 73 1018.8
20260901065004 79 288 2.0 3.0 0.00 0.00 0.00 73 1018.7
20260901064005 79 313 2.0 3.0 0.00 0.00 0.00 73 1018.6
20260901063005 78 248 1.0 2.0 0.00 0.00 0.00 74 1018.2
20260901062005 78 225 2.0 3.0 0.00 0.00 0.00 76 1018.4
20260901061004 78 326 1.0 2.0 0.00 0.00 0.00 76 1018.2
20260901060005 78 321 2.0 4.0 0.00 0.00 0.00 77 1018.3
20260901055004 78 10 4.0 6.0 0.00 0.00 0.00 77 1018.2
20260901054005 77 12 3.0 5.0 0.00 0.00 0.00 78 1017.9
20260901053004 77 2 2.0 4.0 0.00 0.00 0.00 77 1017.9
20260901052004 77 20 3.0 4.0 0.00 0.00 0.00 77 1017.8
20260901051004 77 356 2.0 4.0 0.00 0.00 0.00 77 1017.9
20260901050005 77 341 3.0 4.0 0.00 0.00 0.00 77 1017.9
20260901045005 77 334 3.0 5.0 0.00 0.00 0.00 77 1017.7
20260901043025 77 318 3.0 5.0 0.00 0.00 0.00 78 1017.9
20260901042118 77 277 2.0 4.0 0.00 0.00 0.00 79 1018.2
20260901041055 77 310 2.0 4.0 0.00 0.00 0.00 80 1018.1
20260901035005 77 341 2.0 3.0 0.00 0.00 0.00 81 1017.8
20260901034005 77 338 2.0 3.0 0.00 0.00 0.00 81 1017.7
20260901033005 77 335 2.0 4.0 0.00 0.00 0.00 82 1018.1
20260901032005 78 324 3.0 5.0 0.00 0.00 0.00 82 1018.2
20260901031005 78 342 2.0 4.0 0.00 0.00 0.00 82 1018.2
20260901030006 78 23 4.0 6.0 0.00 0.00 0.00 82 1018.2
20260901025004 78 356 4.0 7.0 0.00 0.00 0.00 82 1018.2
20260901024006 78 13 4.0 7.0 0.00 0.00 0.00 83 1018.2
20260901023009 78 8 4.0 6.0 0.00 0.00 0.00 83 1018.3
20260901020006 78 11 4.0 6.0 0.00 0.00 0.00 83 1018.5
20260901015004 78 10 5.0 8.0 0.00 0.00 0.00 83 1018.5
20260901014006 78 14 5.0 7.0 0.00 0.00 0.00 83 1018.5
20260901013006 78 17 6.0 9.0 0.00 0.00 0.00 83 1018.6
20260901010022 79 11 4.0 7.0 0.00 0.00 0.00 82 1019.0
20260901005005 79 10 4.0 6.0 0.00 0.00 0.00 82 1018.9
20260901004008 79 12 4.0 6.0 0.00 0.00 0.00 81 1019.0
20260901003006 79 23 4.0 7.0 0.00 0.00 0.00 81 1019.1
20260901002004 79 12 5.0 8.0 0.00 0.00 0.00 81 1019.1
20260901001004 79 17 4.0 7.0 0.00 0.00 0.00 81 1019.1
20260901000005 79 16 4.0 6.0 0.00 0.00 0.00 82 1019.1
20260831234004 79 32 2.0 4.0 0.00 0.00 0.00 81 1019.3
20260831233008 80 46 2.0 3.0 0.00 0.00 0.00 80 1019.3
20260831232007 80 13 4.0 6.0 0.00 0.00 0.00 80 1019.3
20260831231004 80 15 4.0 7.0 0.00 0.00 0.00 81 1019.1
20260831230004 80 6 4.0 7.0 0.00 0.00 0.00 80 1019.1
20260831225004 80 10 5.0 9.0 0.00 0.00 0.00 81 1019.1
20260831224019 79 7 4.0 7.0 0.00 0.00 0.00 81 1019.1
20260831222004 80 21 5.0 8.0 0.00 0.00 0.00 81 1019.0
20260831220009 80 28 4.0 7.0 0.00 0.00 0.00 81 1018.9
20260831215003 80 51 7.0 10.0 0.00 0.00 0.00 81 1018.8
20260831213005 80 41 4.0 6.0 0.00 0.00 0.00 80 1018.7
20260831212004 80 42 6.0 9.0 0.00 0.00 0.00 79 1018.6
20260831211004 80 51 6.0 9.0 0.00 0.00 0.00 79 1018.6
20260831210007 80 45 5.0 8.0 0.00 0.00 0.00 80 1018.5
20260831205010 80 41 5.0 8.0 0.00 0.00 0.00 80 1018.4
20260831204009 80 42 6.0 9.0 0.00 0.00 0.00 80 1018.4
20260831203026 80 51 6.0 9.0 0.00 0.00 0.00 80 1018.3
20260831202004 80 54 6.0 10.0 0.00 0.00 0.00 81 1018.2
20260831201005 80 48 6.0 9.0 0.00 0.00 0.00 81 1018.1
20260831195007 80 53 6.0 10.0 0.00 0.00 0.00 80 1017.8
20260831194006 79 47 7.0 10.0 0.00 0.00 0.00 80 1017.6
20260831193005 79 30 7.0 12.0 0.00 0.00 0.00 80 1017.3
20260831192005 79 49 7.0 12.0 0.00 0.00 0.00 79 1017.2
20260831191005 80 50 6.0 10.0 0.00 0.00 0.00 78 1017.0
20260831190004 80 38 7.0 10.0 0.00 0.00 0.00 77 1016.9
20260831185003 81 57 6.0 9.0 0.00 0.00 0.00 74 1016.8
20260831184006 81 50 6.0 10.0 0.00 0.00 0.00 73 1016.8
20260831183006 82 60 8.0 14.0 0.00 0.00 0.00 72 1016.7
20260831182005 82 61 8.0 12.0 0.00 0.00 0.00 72 1016.6
20260831181031 83 53 9.0 15.0 0.00 0.00 0.00 69 1016.6
20260831180007 83 56 9.0 16.0 0.00 0.00 0.00 67 1016.5
20260831173005 84 34 8.0 12.0 0.00 0.00 0.00 66 1016.5
20260831171006 85 61 8.0 13.0 0.00 0.00 0.00 63 1016.3
20260831165004 86 99 7.0 11.0 0.00 0.00 0.00 60 1016.3
20260831164004 85 90 7.0 10.0 0.00 0.00 0.00 61 1016.4
20260831163006 86 82 7.0 10.0 0.00 0.00 0.00 62 1016.6
20260831161004 85 96 7.0 12.0 0.00 0.00 0.00 64 1016.7
20260831160006 85 89 7.0 12.0 0.00 0.00 0.00 64 1016.7
20260831155004 86 86 7.0 13.0 0.00 0.00 0.00 63 1016.8
20260831154005 85 84 9.0 13.0 0.00 0.00 0.00 65 1016.8
20260831152004 85 89 8.0 13.0 0.00 0.00 0.00 65 1016.9
20260831151004 86 59 11.0 16.0 0.00 0.00 0.00 63 1016.9
20260831145004 87 65 9.0 15.0 0.00 0.00 0.00 62 1017.0
20260831144006 86 82 9.0 14.0 0.00 0.00 0.00 62 1017.0
20260831143005 86 90 10.0 17.0 0.00 0.00 0.00 63 1017.0
20260831142004 88 59 10.0 17.0 0.00 0.00 0.00 61 1017.0
20260831141006 87 50 14.0 22.0 0.00 0.00 0.00 62 1017.0
20260831140006 87 51 13.0 21.0 0.00 0.00 0.00 61 1017.0